| time (UTC) | temp F | wind direction | speed MPH | gust MPH | rain 1hr in | rain 24hr in | rain mn in | humidity % | barometer mb |
| 20260505140146 | 64 | 68 | 0.0 | 4.0 | 0.00 | 0.00 | 0.00 | 71 | 1012.8 |
| 20260505124925 | 59 | 68 | 1.0 | 2.0 | 0.00 | 0.00 | 0.00 | 80 | 1013.1 |
| 20260505123352 | 58 | 23 | 2.0 | 4.0 | 0.00 | 0.00 | 0.00 | 81 | 1013.2 |
| 20260505122841 | 58 | 68 | 1.0 | 4.0 | 0.00 | 0.00 | 0.00 | 80 | 1013.1 |
| 20260505122332 | 58 | 23 | 2.0 | 4.0 | 0.00 | 0.00 | 0.00 | 80 | 1013.1 |
| 20260505121312 | 58 | 45 | 1.0 | 4.0 | 0.00 | 0.00 | 0.00 | 79 | 1012.9 |
| 20260505120801 | 57 | 68 | 2.0 | 4.0 | 0.00 | 0.00 | 0.00 | 79 | 1012.8 |
| 20260505120252 | 57 | 68 | 1.0 | 2.0 | 0.00 | 0.00 | 0.00 | 80 | 1012.8 |
| 20260505115741 | 56 | 90 | 1.0 | 2.0 | 0.00 | 0.00 | 0.00 | 81 | 1012.8 |
| 20260505115231 | 56 | 68 | 1.0 | 4.0 | 0.00 | 0.00 | 0.00 | 81 | 1012.6 |
| 20260505114721 | 56 | 68 | 2.0 | 4.0 | 0.00 | 0.00 | 0.00 | 81 | 1012.6 |
| 20260505113701 | 56 | 45 | 0.0 | 2.0 | 0.00 | 0.00 | 0.00 | 81 | 1012.7 |
| 20260505113151 | 55 | 23 | 1.0 | 2.0 | 0.00 | 0.00 | 0.00 | 82 | 1012.6 |
| 20260505112640 | 54 | 23 | 2.0 | 2.0 | 0.00 | 0.00 | 0.00 | 83 | 1012.6 |
| 20260505112130 | 54 | 90 | 2.0 | 4.0 | 0.00 | 0.00 | 0.00 | 85 | 1012.3 |
| 20260505111620 | 53 | 68 | 1.0 | 4.0 | 0.00 | 0.00 | 0.00 | 86 | 1012.1 |
| 20260505111110 | 53 | 68 | 1.0 | 4.0 | 0.00 | 0.00 | 0.00 | 86 | 1012.3 |
| 20260505110559 | 52 | 90 | 2.0 | 4.0 | 0.00 | 0.00 | 0.00 | 87 | 1012.1 |
| 20260505101929 | 52 | 23 | 0.0 | 4.0 | 0.00 | 0.00 | 0.00 | 87 | 1012.0 |
| 20260505101419 | 52 | 68 | 1.0 | 4.0 | 0.00 | 0.00 | 0.00 | 87 | 1012.1 |
| 20260505100908 | 52 | 45 | 2.0 | 4.0 | 0.00 | 0.00 | 0.00 | 87 | 1012.1 |
| 20260505100358 | 52 | 45 | 2.0 | 2.0 | 0.00 | 0.00 | 0.00 | 87 | 1012.4 |
| 20260505095849 | 52 | 45 | 2.0 | 2.0 | 0.00 | 0.00 | 0.00 | 87 | 1012.2 |
| 20260505095339 | 52 | 68 | 1.0 | 4.0 | 0.00 | 0.00 | 0.00 | 87 | 1012.0 |
| 20260505094827 | 52 | 45 | 2.0 | 4.0 | 0.00 | 0.00 | 0.00 | 87 | 1011.7 |
| 20260505094317 | 52 | 68 | 1.0 | 2.0 | 0.00 | 0.00 | 0.00 | 87 | 1011.7 |
| 20260505093807 | 52 | 68 | 1.0 | 2.0 | 0.00 | 0.00 | 0.00 | 87 | 1011.5 |
| 20260505093257 | 52 | 0 | 0.0 | 4.0 | 0.00 | 0.00 | 0.00 | 87 | 1011.5 |
| 20260505092747 | 52 | 45 | 2.0 | 4.0 | 0.00 | 0.00 | 0.00 | 87 | 1011.6 |
| 20260505092237 | 52 | 45 | 1.0 | 2.0 | 0.00 | 0.00 | 0.00 | 87 | 1011.6 |
| 20260505091729 | 52 | 68 | 1.0 | 2.0 | 0.00 | 0.00 | 0.00 | 87 | 1011.6 |
| 20260505091217 | 52 | 68 | 1.0 | 2.0 | 0.00 | 0.00 | 0.00 | 86 | 1011.5 |
| 20260505090708 | 52 | 45 | 2.0 | 2.0 | 0.00 | 0.00 | 0.00 | 86 | 1011.4 |
| 20260505090156 | 52 | 45 | 0.0 | 2.0 | 0.00 | 0.00 | 0.00 | 86 | 1011.5 |
| 20260505083605 | 53 | 68 | 1.0 | 4.0 | 0.00 | 0.00 | 0.00 | 84 | 1010.9 |
| 20260505083056 | 53 | 0 | 2.0 | 4.0 | 0.00 | 0.00 | 0.00 | 84 | 1010.7 |
| 20260505082546 | 53 | 45 | 1.0 | 4.0 | 0.00 | 0.00 | 0.00 | 84 | 1010.7 |
| 20260505082035 | 54 | 68 | 2.0 | 4.0 | 0.00 | 0.00 | 0.00 | 84 | 1010.7 |
| 20260505081525 | 54 | 45 | 2.0 | 4.0 | 0.00 | 0.00 | 0.00 | 83 | 1010.8 |
| 20260505081015 | 54 | 45 | 1.0 | 4.0 | 0.00 | 0.00 | 0.00 | 83 | 1010.7 |
| 20260505075955 | 54 | 90 | 2.0 | 4.0 | 0.00 | 0.00 | 0.00 | 84 | 1010.9 |
| 20260505075445 | 54 | 68 | 2.0 | 4.0 | 0.00 | 0.00 | 0.00 | 84 | 1010.7 |
| 20260505074934 | 54 | 68 | 2.0 | 4.0 | 0.00 | 0.00 | 0.00 | 84 | 1010.7 |
| 20260505074425 | 54 | 68 | 2.0 | 4.0 | 0.00 | 0.00 | 0.00 | 84 | 1010.6 |
| 20260505073915 | 54 | 45 | 2.0 | 4.0 | 0.00 | 0.00 | 0.00 | 84 | 1010.8 |
| 20260505073404 | 54 | 45 | 2.0 | 4.0 | 0.00 | 0.00 | 0.00 | 84 | 1010.6 |
| 20260505072854 | 54 | 68 | 2.0 | 4.0 | 0.00 | 0.00 | 0.00 | 84 | 1010.9 |
| 20260505072344 | 54 | 338 | 1.0 | 6.0 | 0.00 | 0.00 | 0.00 | 84 | 1010.9 |
| 20260505071834 | 54 | 45 | 2.0 | 6.0 | 0.00 | 0.00 | 0.00 | 85 | 1010.9 |
| 20260505071323 | 54 | 45 | 2.0 | 4.0 | 0.00 | 0.00 | 0.00 | 85 | 1010.8 |
| 20260505070814 | 54 | 68 | 2.0 | 2.0 | 0.00 | 0.00 | 0.00 | 86 | 1010.6 |
| 20260505070303 | 54 | 90 | 1.0 | 4.0 | 0.00 | 0.00 | 0.00 | 86 | 1010.6 |
| 20260505065753 | 54 | 45 | 1.0 | 4.0 | 0.00 | 0.00 | 0.00 | 86 | 1010.8 |
| 20260505065243 | 54 | 45 | 2.0 | 4.0 | 0.00 | 0.00 | 0.00 | 86 | 1010.9 |
| 20260505064732 | 54 | 45 | 1.0 | 4.0 | 0.00 | 0.00 | 0.00 | 86 | 1010.7 |
| 20260505064223 | 54 | 23 | 1.0 | 4.0 | 0.00 | 0.00 | 0.00 | 86 | 1010.8 |
| 20260505063712 | 54 | 45 | 2.0 | 4.0 | 0.00 | 0.00 | 0.00 | 86 | 1010.5 |
| 20260505063202 | 54 | 68 | 1.0 | 4.0 | 0.00 | 0.00 | 0.00 | 86 | 1010.5 |
| 20260505062652 | 54 | 68 | 2.0 | 4.0 | 0.00 | 0.00 | 0.00 | 86 | 1010.7 |
| 20260505062142 | 55 | 23 | 2.0 | 6.0 | 0.00 | 0.00 | 0.00 | 85 | 1010.6 |
| 20260505061632 | 55 | 68 | 2.0 | 6.0 | 0.00 | 0.00 | 0.00 | 85 | 1010.5 |
| 20260505061121 | 55 | 158 | 2.0 | 6.0 | 0.00 | 0.00 | 0.00 | 85 | 1010.9 |
| 20260505060612 | 55 | 90 | 2.0 | 4.0 | 0.00 | 0.00 | 0.00 | 85 | 1011.1 |
| 20260505055551 | 55 | 68 | 2.0 | 4.0 | 0.00 | 0.00 | 0.00 | 85 | 1010.7 |
| 20260505055041 | 56 | 45 | 1.0 | 4.0 | 0.00 | 0.00 | 0.00 | 85 | 1010.4 |
| 20260505054531 | 56 | 23 | 2.0 | 4.0 | 0.00 | 0.00 | 0.00 | 86 | 1010.7 |
| 20260505054021 | 56 | 68 | 2.0 | 4.0 | 0.00 | 0.00 | 0.00 | 85 | 1011.0 |
| 20260505053512 | 56 | 68 | 2.0 | 4.0 | 0.00 | 0.00 | 0.00 | 85 | 1010.9 |
| 20260505053226 | 56 | 45 | 2.0 | 2.0 | 0.00 | 0.00 | 0.00 | 85 | 1010.9 |
| 20260505052544 | 56 | 68 | 1.0 | 4.0 | 0.00 | 0.00 | 0.00 | 85 | 1011.0 |
| 20260505052033 | 56 | 45 | 2.0 | 4.0 | 0.00 | 0.00 | 0.00 | 86 | 1010.9 |
| 20260505051533 | 56 | 45 | 1.0 | 4.0 | 0.00 | 0.00 | 0.00 | 86 | 1010.6 |
| 20260505051016 | 56 | 45 | 2.0 | 4.0 | 0.00 | 0.00 | 0.00 | 86 | 1010.6 |
| 20260505050503 | 56 | 23 | 2.0 | 4.0 | 0.00 | 0.00 | 0.00 | 86 | 1010.7 |
| 20260505041322 | 56 | 68 | 2.0 | 4.0 | 0.00 | 0.00 | 0.00 | 88 | 1010.8 |
| 20260505040811 | 57 | 68 | 2.0 | 4.0 | 0.00 | 0.00 | 0.00 | 89 | 1011.1 |
| 20260505035751 | 57 | 68 | 2.0 | 4.0 | 0.00 | 0.00 | 0.00 | 89 | 1010.8 |
| 20260505035241 | 57 | 90 | 1.0 | 4.0 | 0.00 | 0.00 | 0.00 | 88 | 1010.9 |
| 20260505034732 | 57 | 23 | 1.0 | 4.0 | 0.00 | 0.00 | 0.00 | 88 | 1010.7 |
| 20260505034221 | 58 | 113 | 0.0 | 4.0 | 0.00 | 0.00 | 0.00 | 87 | 1010.8 |
| 20260505033711 | 58 | 68 | 2.0 | 4.0 | 0.00 | 0.00 | 0.00 | 87 | 1010.7 |
| 20260505033200 | 58 | 68 | 2.0 | 4.0 | 0.00 | 0.00 | 0.00 | 86 | 1010.9 |
| 20260505032650 | 58 | 45 | 2.0 | 4.0 | 0.00 | 0.00 | 0.00 | 85 | 1010.7 |
| 20260505032140 | 58 | 68 | 0.0 | 4.0 | 0.00 | 0.00 | 0.00 | 85 | 1010.5 |
| 20260505031120 | 59 | 23 | 2.0 | 6.0 | 0.00 | 0.00 | 0.00 | 84 | 1010.3 |
| 20260505030610 | 59 | 68 | 2.0 | 6.0 | 0.00 | 0.00 | 0.00 | 84 | 1010.3 |
| 20260505030059 | 59 | 113 | 2.0 | 7.0 | 0.00 | 0.00 | 0.00 | 84 | 1010.1 |
| 20260505025039 | 59 | 225 | 2.0 | 7.0 | 0.00 | 0.00 | 0.00 | 83 | 1010.0 |
| 20260505024529 | 59 | 0 | 2.0 | 6.0 | 0.00 | 0.00 | 0.00 | 84 | 1009.9 |
| 20260505024019 | 59 | 68 | 2.0 | 6.0 | 0.00 | 0.00 | 0.00 | 84 | 1009.9 |
| 20260505023510 | 59 | 45 | 2.0 | 6.0 | 0.00 | 0.00 | 0.00 | 84 | 1009.9 |
| 20260505022958 | 59 | 68 | 2.0 | 6.0 | 0.00 | 0.00 | 0.00 | 84 | 1009.9 |
| 20260505022448 | 59 | 135 | 1.0 | 4.0 | 0.00 | 0.00 | 0.00 | 83 | 1009.7 |
| 20260505021939 | 59 | 45 | 3.0 | 6.0 | 0.00 | 0.00 | 0.00 | 83 | 1010.0 |
| 20260505021429 | 59 | 0 | 2.0 | 6.0 | 0.00 | 0.00 | 0.00 | 83 | 1009.6 |
| 20260505020919 | 59 | 23 | 1.0 | 4.0 | 0.00 | 0.00 | 0.00 | 83 | 1009.8 |
| 20260505020408 | 59 | 135 | 2.0 | 6.0 | 0.00 | 0.00 | 0.00 | 83 | 1009.9 |
| 20260505015857 | 59 | 45 | 2.0 | 6.0 | 0.00 | 0.00 | 0.00 | 84 | 1009.9 |
| 20260505014837 | 59 | 68 | 2.0 | 4.0 | 0.00 | 0.00 | 0.00 | 86 | 1010.3 |
| 20260505014327 | 59 | 68 | 2.0 | 6.0 | 0.00 | 0.00 | 0.00 | 86 | 1010.3 |
| 20260505013817 | 59 | 248 | 2.0 | 7.0 | 0.00 | 0.00 | 0.00 | 86 | 1010.0 |
| 20260505013307 | 59 | 68 | 3.0 | 7.0 | 0.00 | 0.00 | 0.00 | 86 | 1010.1 |
| 20260505012804 | 59 | 68 | 2.0 | 4.0 | 0.00 | 0.00 | 0.00 | 85 | 1010.0 |
| 20260505011816 | 60 | 45 | 2.0 | 6.0 | 0.00 | 0.00 | 0.00 | 84 | 1009.9 |
| 20260505011306 | 60 | 68 | 1.0 | 6.0 | 0.00 | 0.00 | 0.00 | 83 | 1009.7 |
| 20260505010756 | 60 | 113 | 2.0 | 6.0 | 0.00 | 0.00 | 0.00 | 81 | 1009.8 |
| 20260505010247 | 60 | 45 | 2.0 | 4.0 | 0.00 | 0.00 | 0.00 | 80 | 1010.1 |
| 20260505005736 | 59 | 90 | 2.0 | 4.0 | 0.00 | 0.00 | 0.00 | 81 | 1010.1 |
| 20260505005226 | 59 | 68 | 2.0 | 4.0 | 0.00 | 0.00 | 0.00 | 82 | 1009.8 |
| 20260505004205 | 59 | 23 | 2.0 | 4.0 | 0.00 | 0.00 | 0.00 | 83 | 1009.9 |
| 20260505003655 | 59 | 113 | 2.0 | 4.0 | 0.00 | 0.00 | 0.00 | 85 | 1009.4 |
| 20260505002635 | 59 | 68 | 2.0 | 4.0 | 0.00 | 0.00 | 0.00 | 87 | 1009.4 |
| 20260505002124 | 59 | 113 | 2.0 | 4.0 | 0.00 | 0.00 | 0.00 | 87 | 1009.8 |
| 20260505001614 | 59 | 135 | 0.0 | 4.0 | 0.00 | 0.00 | 0.00 | 88 | 1009.8 |
| 20260505001105 | 59 | 68 | 2.0 | 4.0 | 0.00 | 0.00 | 0.00 | 88 | 1009.9 |
| 20260505000555 | 59 | 90 | 1.0 | 4.0 | 0.00 | 0.00 | 0.00 | 88 | 1010.0 |
| 20260505000044 | 59 | 135 | 1.0 | 2.0 | 0.00 | 0.00 | 0.00 | 88 | 1010.2 |
| 20260504235534 | 59 | 90 | 0.0 | 7.0 | 0.00 | 0.00 | 0.00 | 88 | 1010.1 |
| 20260504235026 | 59 | 90 | 2.0 | 7.0 | 0.00 | 0.00 | 0.00 | 88 | 1010.1 |
| 20260504234513 | 59 | 113 | 1.0 | 4.0 | 0.00 | 0.00 | 0.00 | 88 | 1010.0 |
| 20260504234006 | 59 | 68 | 1.0 | 2.0 | 0.00 | 0.00 | 0.00 | 88 | 1010.0 |
| 20260504232944 | 59 | 113 | 1.0 | 4.0 | 0.00 | 0.00 | 0.00 | 88 | 1010.0 |
| 20260504232434 | 59 | 68 | 0.0 | 4.0 | 0.00 | 0.00 | 0.00 | 88 | 1010.0 |
| 20260504231414 | 59 | 113 | 2.0 | 4.0 | 0.00 | 0.00 | 0.00 | 87 | 1009.8 |
| 20260504230904 | 59 | 68 | 1.0 | 4.0 | 0.00 | 0.00 | 0.00 | 87 | 1009.9 |
| 20260504230353 | 59 | 113 | 1.0 | 4.0 | 0.00 | 0.00 | 0.00 | 87 | 1010.0 |
| 20260504225843 | 59 | 113 | 1.0 | 4.0 | 0.00 | 0.00 | 0.00 | 87 | 1009.9 |
| 20260504224823 | 59 | 90 | 1.0 | 4.0 | 0.00 | 0.00 | 0.00 | 88 | 1009.5 |
| 20260504224313 | 59 | 68 | 2.0 | 7.0 | 0.00 | 0.00 | 0.00 | 88 | 1009.6 |
| 20260504223803 | 59 | 158 | 2.0 | 7.0 | 0.00 | 0.00 | 0.00 | 88 | 1009.3 |
| 20260504223253 | 59 | 113 | 2.0 | 4.0 | 0.00 | 0.00 | 0.00 | 88 | 1009.5 |
| 20260504222742 | 59 | 135 | 1.0 | 4.0 | 0.00 | 0.00 | 0.00 | 87 | 1009.5 |
| 20260504222231 | 59 | 158 | 0.0 | 4.0 | 0.00 | 0.00 | 0.00 | 87 | 1009.5 |
| 20260504221724 | 59 | 0 | 2.0 | 2.0 | 0.00 | 0.00 | 0.00 | 87 | 1009.6 |
| 20260504220610 | 60 | 68 | 2.0 | 4.0 | 0.00 | 0.00 | 0.00 | 85 | 1009.5 |
| 20260504220101 | 60 | 113 | 0.0 | 4.0 | 0.00 | 0.00 | 0.00 | 84 | 1009.4 |
| 20260504215550 | 60 | 68 | 2.0 | 4.0 | 0.00 | 0.00 | 0.00 | 83 | 1009.2 |
| 20260504215040 | 60 | 293 | 1.0 | 4.0 | 0.00 | 0.00 | 0.00 | 82 | 1009.1 |
| 20260504214535 | 61 | 135 | 2.0 | 6.0 | 0.00 | 0.00 | 0.00 | 81 | 1008.8 |
| 20260504214020 | 61 | 158 | 2.0 | 6.0 | 0.00 | 0.00 | 0.00 | 79 | 1008.9 |
| 20260504213510 | 61 | 45 | 2.0 | 4.0 | 0.00 | 0.00 | 0.00 | 77 | 1008.8 |
| 20260504213000 | 61 | 113 | 1.0 | 4.0 | 0.00 | 0.00 | 0.00 | 76 | 1008.9 |
| 20260504212451 | 61 | 45 | 1.0 | 2.0 | 0.00 | 0.00 | 0.00 | 75 | 1008.8 |
| 20260504211255 | 62 | 23 | 2.0 | 4.0 | 0.00 | 0.00 | 0.00 | 73 | 1008.8 |
| 20260504210745 | 62 | 68 | 0.0 | 4.0 | 0.00 | 0.00 | 0.00 | 72 | 1008.7 |
| 20260504205727 | 62 | 45 | 0.0 | 2.0 | 0.00 | 0.00 | 0.00 | 71 | 1008.5 |
| 20260504204648 | 63 | 225 | 0.0 | 2.0 | 0.00 | 0.00 | 0.00 | 69 | 1008.4 |
| 20260504204137 | 64 | 45 | 0.0 | 2.0 | 0.00 | 0.00 | 0.00 | 68 | 1008.4 |
| 20260504203627 | 64 | 315 | 0.0 | 4.0 | 0.00 | 0.00 | 0.00 | 66 | 1008.4 |
| 20260504202607 | 66 | 23 | 1.0 | 2.0 | 0.00 | 0.00 | 0.00 | 63 | 1008.1 |
| 20260504202100 | 65 | 90 | 2.0 | 4.0 | 0.00 | 0.00 | 0.00 | 63 | 1008.3 |
| 20260504201546 | 66 | 45 | 1.0 | 4.0 | 0.00 | 0.00 | 0.00 | 63 | 1008.3 |
| 20260504201037 | 67 | 135 | 0.0 | 4.0 | 0.00 | 0.00 | 0.00 | 61 | 1008.1 |
| 20260504200015 | 66 | 45 | 2.0 | 4.0 | 0.00 | 0.00 | 0.00 | 61 | 1007.9 |
| 20260504195506 | 66 | 0 | 2.0 | 7.0 | 0.00 | 0.00 | 0.00 | 62 | 1008.1 |
| 20260504194955 | 65 | 68 | 2.0 | 7.0 | 0.00 | 0.00 | 0.00 | 62 | 1007.9 |
| 20260504193935 | 66 | 0 | 2.0 | 7.0 | 0.00 | 0.00 | 0.00 | 60 | 1008.1 |
| 20260504193424 | 66 | 23 | 2.0 | 8.0 | 0.00 | 0.00 | 0.00 | 59 | 1007.8 |
| 20260504192915 | 66 | 68 | 1.0 | 8.0 | 0.00 | 0.00 | 0.00 | 59 | 1007.8 |
| 20260504192404 | 67 | 203 | 2.0 | 9.0 | 0.00 | 0.00 | 0.00 | 58 | 1007.5 |
| 20260504191854 | 67 | 338 | 2.0 | 9.0 | 0.00 | 0.00 | 0.00 | 58 | 1007.2 |
| 20260504191345 | 67 | 90 | 3.0 | 8.0 | 0.00 | 0.00 | 0.00 | 57 | 1007.3 |
| 20260504190324 | 69 | 68 | 2.0 | 11.0 | 0.00 | 0.00 | 0.00 | 54 | 1007.6 |
| 20260504185819 | 70 | 45 | 4.0 | 11.0 | 0.00 | 0.00 | 0.00 | 54 | 1007.5 |
| 20260504185304 | 71 | 293 | 3.0 | 8.0 | 0.00 | 0.00 | 0.00 | 51 | 1007.4 |
| 20260504184754 | 71 | 113 | 3.0 | 7.0 | 0.00 | 0.00 | 0.00 | 52 | 1007.6 |
| 20260504184244 | 71 | 90 | 3.0 | 8.0 | 0.00 | 0.00 | 0.00 | 52 | 1007.4 |
| 20260504183733 | 71 | 90 | 4.0 | 9.0 | 0.00 | 0.00 | 0.00 | 49 | 1007.6 |
| 20260504183223 | 71 | 45 | 5.0 | 9.0 | 0.00 | 0.00 | 0.00 | 48 | 1007.5 |
| 20260504182713 | 72 | 23 | 2.0 | 9.0 | 0.00 | 0.00 | 0.00 | 47 | 1007.6 |
| 20260504182203 | 71 | 248 | 1.0 | 11.0 | 0.00 | 0.00 | 0.00 | 48 | 1007.6 |
| 20260504181653 | 71 | 45 | 4.0 | 11.0 | 0.00 | 0.00 | 0.00 | 47 | 1007.9 |
| 20260504181142 | 72 | 45 | 4.0 | 9.0 | 0.00 | 0.00 | 0.00 | 47 | 1007.7 |
| 20260504180633 | 71 | 68 | 3.0 | 14.0 | 0.00 | 0.00 | 0.00 | 48 | 1007.9 |
| 20260504180122 | 71 | 45 | 2.0 | 14.0 | 0.00 | 0.00 | 0.00 | 48 | 1007.8 |
| 20260504175612 | 71 | 68 | 4.0 | 11.0 | 0.00 | 0.00 | 0.00 | 47 | 1007.7 |
| 20260504175106 | 71 | 23 | 4.0 | 11.0 | 0.00 | 0.00 | 0.00 | 46 | 1007.8 |
| 20260504174552 | 70 | 68 | 4.0 | 9.0 | 0.00 | 0.00 | 0.00 | 48 | 1008.0 |
| 20260504174042 | 70 | 0 | 3.0 | 11.0 | 0.00 | 0.00 | 0.00 | 48 | 1008.0 |
| 20260504173532 | 70 | 68 | 5.0 | 11.0 | 0.00 | 0.00 | 0.00 | 48 | 1008.4 |
| 20260504173021 | 70 | 45 | 3.0 | 11.0 | 0.00 | 0.00 | 0.00 | 49 | 1008.2 |
| 20260504172512 | 70 | 23 | 4.0 | 14.0 | 0.00 | 0.00 | 0.00 | 48 | 1008.2 |
| 20260504172001 | 69 | 68 | 5.0 | 14.0 | 0.00 | 0.00 | 0.00 | 49 | 1008.0 |
| 20260504171451 | 70 | 68 | 5.0 | 11.0 | 0.00 | 0.00 | 0.00 | 49 | 1008.3 |
| 20260504170942 | 70 | 68 | 4.0 | 9.0 | 0.00 | 0.00 | 0.00 | 48 | 1008.6 |
| 20260504170431 | 70 | 45 | 2.0 | 8.0 | 0.00 | 0.00 | 0.00 | 48 | 1008.7 |
| 20260504160321 | 68 | 45 | 5.0 | 9.0 | 0.00 | 0.00 | 0.00 | 54 | 1009.4 |
| 20260504151140 | 65 | 90 | 7.0 | 11.0 | 0.00 | 0.00 | 0.00 | 54 | 1010.0 |
| 20260504150630 | 65 | 45 | 5.0 | 11.0 | 0.00 | 0.00 | 0.00 | 55 | 1010.3 |
| 20260504150120 | 65 | 0 | 4.0 | 15.0 | 0.00 | 0.00 | 0.00 | 55 | 1010.3 |